Location: Unspecified
(35.0317°N, 0.0000°E)
Time: 14:50:42
(UTC+00:00)

Envisat - Visible Passes

Search period start: 23 May 2019 00:00
Search period end: 02 June 2019 00:00
Orbit: 764 x 766 km, 98.2° (Epoch: 23 May)

Date Brightness Start Highest point End Pass type
(mag) Time Alt. Az. Time Alt. Az. Time Alt. Az.
24 May 5.6 19:40:01 10° SW 19:43:31 19° W 19:47:03 10° NW visible
27 May 5.4 19:28:09 10° SSW 19:32:13 24° W 19:36:19 10° NW visible
29 May 5.8 19:55:42 10° WSW 19:57:57 13° W 20:00:13 10° WNW visible
01 Jun 5.7 19:43:23 10° SW 19:46:37 17° W 19:49:52 10° NW visible
